Temperature
1 1 0 -0 -1 -2 -3 -4 -5 -4 -4 -4 -4 -5 -5 -6 -7 -7 -7 -7 -7 -7 -7 -7 -7 -7 -6 -6 -6 -6 -5 -5 -5 -4 -4 -4 -3 -3
1 0 -1 -1 -2 -3 -4 -5 -5 -6 -5 -5 -5 -6 -6 -7 -7 -7 -7 -7 -7 -7 -7 -7 -7 -7 -7 -7 -6 -6 -6 -5 -5 -5 -4 -4 -4 -3
-0 -1 -1 -2 -3 -4 -5 -5 -6 -6 -6 -6 -6 -7 -7 -7 -7 -7 -7 -7 -7 -7 -7 -7 -7 -7 -7 -7 -7 -6 -6 -6 -6 -5 -5 -4 -4 -4
-1 -1 -2 -3 -4 -5 -6 -6 -7 -7 -7 -7 -7 -7 -7 -7 -7 -7 -7 -7 -7 -7 -8 -7 -7 -7 -7 -7 -7 -7 -6 -6 -6 -6 -5 -5 -5 -4
-1 -2 -3 -4 -5 -6 -6 -7 -7 -8 -8 -8 -8 -7 -7 -7 -7 -7 -7 -8 -8 -8 -8 -8 -7 -7 -7 -7 -7 -7 -7 -7 -7 -6 -6 -6 -6 -5
-2 -3 -4 -5 -6 -7 -7 -8 -8 -8 -8 -8 -8 -8 -7 -7 -7 -7 -8 -8 -8 -8 -8 -8 -7 -7 -7 -7 -6 -6 -6 -7 -7 -7 -7 -7 -6 -6
-3 -4 -5 -5 -6 -7 -8 -8 -8 -8 -8 -8 -8 -8 -8 -8 -8 -8 -9 -9 -8 -8 -8 -8 -8 -7 -7 -7 -7 -6 -7 -7 -7 -7 -7 -7 -6 -6
-4 -5 -6 -6 -7 -8 -8 -8 -9 -9 -8 -8 -8 -8 -8 -8 -8 -9 -9 -9 -9 -8 -8 -8 -8 -8 -7 -7 -6 -6 -6 -6 -6 -7 -7 -6 -6 -6
-4 -5 -6 -7 -8 -8 -9 -9 -9 -8 -8 -9 -9 -9 -9 -9 -9 -9 -9 -9 -9 -9 -9 -9 -8 -8 -7 -7 -6 -5 -5 -5 -5 -6 -6 -6 -6 -6
-5 -6 -7 -8 -8 -9 -9 -9 -9 -9 -9 -9 -9 -9 -9 -9 -9 -9 -10 -10 -10 -9 -9 -9 -8 -8 -7 -7 -5 -5 -4 -5 -5 -5 -5 -6 -5 -5
-6 -7 -8 -9 -9 -9 -9 -9 -9 -9 -9 -9 -9 -9 -9 -9 -9 -10 -10 -10 -10 -9 -9 -9 -9 -9 -8 -7 -5 -5 -4 -4 -4 -5 -5 -5 -5 -5
-8 -8 -8 -9 -9 -9 -9 -9 -9 -9 -9 -9 -9 -9 -8 -8 -9 -9 -10 -10 -11 -11 -9 -10 -10 -10 -10 -8 -6 -5 -4 -4 -4 -4 -4 -4 -4 -4
-8 -9 -9 -9 -9 -9 -9 -9 -10 -10 -10 -9 -9 -8 -8 -8 -8 -8 -9 -10 -10 -10 -8 -10 -11 -11 -11 -10 -7 -5 -5 -5 -5 -4 -4 -4 -4 -4
-9 -9 -9 -9 -9 -9 -9 -9 -9 -9 -9 -9 -9 -8 -8 -8 -8 -7 -7 -7 -8 -8 -7 -8 -10 -10 -10 -10 -9 -6 -5 -5 -5 -5 -4 -4 -4 -3
-9 -9 -9 -9 -9 -8 -8 -8 -9 -9 -9 -9 -9 -9 -8 -8 -7 -7 -7 -7 -7 -6 -7 -7 -8 -9 -9 -10 -9 -7 -6 -5 -4 -5 -5 -4 -4 -3
-9 -9 -9 -9 -8 -8 -8 -8 -9 -9 -10 -10 -9 -8 -8 -8 -7 -8 -8 -7 -7 -6 -6 -7 -8 -8 -9 -8 -8 -7 -6 -6 -5 -5 -5 -4 -3 -3
-10 -10 -9 -9 -9 -9 -9 -9 -9 -9 -9 -9 -8 -8 -8 -8 -8 -8 -8 -8 -9 -8 -7 -6 -7 -7 -7 -7 -6 -5 -6 -6 -6 -5 -5 -4 -3 -3
-10 -10 -10 -9 -9 -9 -9 -8 -8 -8 -8 -8 -8 -8 -8 -8 -8 -8 -8 -8 -9 -8 -8 -7 -8 -7 -7 -6 -5 -6 -6 -6 -6 -5 -5 -4 -3 -3
-9 -9 -9 -9 -9 -9 -9 -9 -8 -8 -8 -8 -8 -8 -8 -8 -8 -8 -8 -8 -8 -8 -8 -8 -8 -8 -8 -7 -6 -5 -6 -6 -6 -5 -5 -4 -3 -3
-9 -10 -9 -9 -9 -9 -9 -9 -8 -8 -8 -8 -8 -8 -8 -8 -8 -8 -8 -8 -8 -8 -8 -8 -8 -8 -8 -7 -7 -5 -5 -5 -6 -6 -5 -4 -4 -3
-10 -9 -9 -9 -9 -9 -9 -8 -8 -8 -8 -8 -8 -8 -8 -8 -8 -8 -8 -8 -8 -8 -8 -8 -7 -7 -6 -6 -7 -6 -5 -5 -5 -5 -5 -4 -4 -3
-10 -9 -9 -9 -9 -8 -8 -8 -8 -7 -7 -8 -8 -8 -8 -8 -8 -8 -8 -8 -8 -8 -8 -7 -7 -6 -6 -6 -6 -6 -5 -5 -4 -4 -4 -5 -4 -4
-10 -9 -9 -8 -8 -8 -8 -8 -7 -7 -7 -7 -8 -8 -8 -8 -8 -8 -8 -8 -8 -8 -8 -8 -7 -6 -6 -6 -6 -6 -6 -5 -5 -5 -4 -4 -4 -4
Wind_Speed
4 5 6 6 7 7 9 10 11 15 17 15 10 11 15 18 21 23 24 28 31 33 35 35 35 35 35 35 35 35 34 34 34 35 35 35 36 36
5 7 7 7 7 8 9 10 11 15 17 13 16 17 17 17 23 24 24 29 30 31 32 33 34 35 35 35 35 34 34 34 34 34 35 35 35 36
6 7 8 9 9 9 9 10 12 13 18 19 16 18 21 21 19 21 22 22 22 29 31 33 34 34 34 34 34 34 34 34 34 34 34 35 35 35
8 8 9 9 11 11 10 12 13 14 17 22 19 18 21 21 21 21 18 18 20 26 30 32 33 33 33 33 33 34 34 33 33 34 34 34 35 35
9 9 10 11 12 11 13 13 13 14 15 18 20 18 18 18 20 20 20 18 18 22 26 28 30 31 32 33 33 33 33 33 32 33 33 34 34 35
9 10 11 12 13 14 14 15 15 16 17 17 18 18 18 19 18 18 18 17 17 17 21 22 25 29 30 31 32 32 32 31 31 31 32 32 33 34
10 10 11 13 16 15 14 16 17 16 16 16 17 18 18 18 17 17 18 18 18 17 17 16 17 18 20 24 26 28 29 30 31 31 32 32 33 34
11 12 12 14 15 19 21 22 21 20 19 18 17 19 21 20 18 17 18 19 19 14 17 19 17 18 17 17 24 30 31 32 32 32 32 32 33 33
12 12 12 12 17 15 19 22 22 24 23 20 21 21 21 20 20 21 20 20 20 18 18 20 18 19 17 18 29 31 32 32 31 31 31 31 32 32
12 13 14 15 15 18 19 19 19 19 20 18 18 20 20 20 20 20 20 20 19 17 16 19 19 18 18 18 27 30 30 29 29 30 30 31 31 32
13 13 15 16 19 22 20 19 20 18 18 21 23 25 28 28 22 15 16 15 17 17 15 13 15 18 18 18 18 23 26 28 30 30 31 31 31 30
12 14 16 17 21 24 19 19 20 18 18 19 20 20 19 19 20 14 13 13 15 12 9 8 13 13 11 11 13 16 19 24 28 29 29 29 30 21
13 13 13 19 23 26 23 18 19 20 18 17 16 15 14 13 12 12 12 12 14 13 12 11 12 13 11 12 16 17 17 16 18 20 24 27 28 24
13 13 14 23 26 25 20 18 22 20 13 12 13 13 13 13 13 14 16 15 15 18 19 17 13 15 16 19 16 15 16 17 17 17 16 21 24 27
13 19 22 24 23 17 17 20 18 12 11 12 13 13 13 14 14 14 15 15 17 17 17 17 16 15 16 17 17 19 20 18 14 14 16 17 16 14
14 17 21 20 17 16 16 13 10 10 11 12 13 14 14 13 13 13 13 13 13 15 13 13 15 16 16 19 18 18 17 12 15 17 17 16 15 12
16 13 11 11 11 11 11 11 11 11 11 11 12 13 13 13 13 12 12 12 13 15 16 14 13 13 16 17 17 16 15 15 15 16 17 16 14 11
15 11 11 11 11 12 12 13 12 12 12 12 12 13 13 13 14 13 12 12 13 14 14 15 15 15 13 9 12 13 13 14 15 16 15 15 13 11
10 9 10 11 11 12 12 13 13 13 13 12 13 13 12 13 13 13 13 13 13 14 14 14 13 12 15 15 9 7 11 15 15 15 14 14 12 11
8 10 11 11 12 12 12 13 13 13 13 12 13 13 12 12 13 13 13 14 14 14 14 13 12 12 12 12 11 13 15 14 13 13 13 12 10 11
10 10 11 12 12 12 13 13 13 13 14 13 13 13 12 12 13 13 13 17 15 13 14 14 14 18 13 10 11 11 11 12 14 12 11 11 10 9
11 11 12 12 12 12 13 12 13 13 14 13 13 13 12 12 13 15 13 13 12 12 14 13 13 12 10 10 13 14 14 14 14 15 13 12 9 8
12 12 12 13 12 12 12 13 15 14 13 13 13 13 13 13 12 12 12 12 12 13 13 13 12 11 11 11 12 12 15 15 12 11 10 17 20 18
Wind_Direction
288 288 286 287 285 285 286 288 294 300 303 304 301 302 301 298 296 295 294 294 296 295 295 295 295 295 294 293 291 289 287 284 281 278 276 273 270 268
292 293 295 291 291 289 287 286 284 288 292 295 302 302 303 298 296 296 295 295 293 292 293 293 293 293 293 292 290 288 286 284 281 278 276 273 270 268
294 295 297 298 296 293 292 289 287 287 290 296 300 302 302 301 300 299 297 296 294 294 294 295 294 293 292 291 290 288 286 284 282 279 277 275 273 270
300 299 299 301 297 297 295 292 290 289 291 296 300 303 303 303 302 301 300 298 295 295 296 295 294 293 292 290 289 288 286 284 282 280 278 275 273 271
298 299 300 302 301 300 299 295 293 292 290 293 298 301 301 302 304 303 302 301 299 297 297 295 293 292 292 291 290 289 287 285 283 280 278 275 273 271
295 295 296 299 301 302 299 297 296 297 295 295 296 300 302 305 306 307 307 306 303 302 297 294 294 295 293 291 289 287 286 284 282 280 277 274 271 268
297 296 295 297 297 297 297 299 300 297 296 296 298 301 303 307 307 309 306 306 302 302 301 301 300 296 295 291 288 286 285 285 283 280 277 274 270 267
300 301 301 298 299 300 300 299 295 293 295 297 298 299 300 303 307 305 304 304 304 306 304 301 300 295 294 291 290 291 290 289 286 283 280 276 272 268
301 303 303 302 304 302 300 298 294 292 291 293 294 294 297 301 302 301 300 299 298 300 302 298 299 296 296 293 294 293 292 291 288 285 282 278 274 270
301 303 303 304 304 306 303 301 298 296 294 293 290 291 292 294 295 296 297 296 293 292 293 295 299 298 300 297 295 292 291 290 289 287 285 281 277 273
303 301 301 300 303 307 307 305 303 301 299 296 291 289 289 292 294 294 294 296 296 298 298 290 295 303 300 294 291 293 295 294 292 290 287 284 281 276
305 303 302 304 308 310 310 308 305 306 307 304 299 295 294 292 292 286 287 290 294 298 296 297 298 309 305 291 296 301 300 297 296 294 292 289 285 280
307 306 305 309 310 311 311 305 302 306 304 301 301 300 299 298 297 296 292 285 285 282 287 300 294 296 288 294 302 299 297 298 301 299 296 292 288 282
307 307 308 310 312 312 310 304 306 307 301 300 299 300 302 303 303 301 295 287 276 275 280 283 280 283 287 291 297 299 301 302 300 298 297 295 292 285
306 306 308 310 313 310 306 307 308 304 301 300 298 299 301 300 300 299 297 293 287 280 275 271 270 275 278 283 288 294 301 304 300 301 303 302 297 291
311 309 309 309 308 305 306 307 304 299 300 296 297 298 300 300 299 300 301 304 302 300 291 278 275 277 281 283 285 289 294 295 302 308 308 304 300 292
316 310 309 312 313 314 312 309 308 306 305 301 299 300 301 301 301 302 300 300 296 298 305 307 299 288 279 279 283 284 292 300 306 311 313 310 306 302
318 309 310 312 312 312 312 311 311 309 306 304 300 298 299 300 301 302 301 298 297 298 301 307 311 312 308 291 254 275 294 305 311 314 315 316 312 313
313 309 309 308 307 306 306 305 305 305 305 301 298 298 298 297 298 299 300 300 299 300 302 306 308 311 316 319 302 276 300 310 314 317 319 319 316 319
314 308 306 305 304 304 303 303 303 304 303 301 298 297 296 296 296 297 298 299 300 303 306 308 309 312 311 302 298 300 301 307 317 318 320 319 314 316
313 309 305 303 302 301 301 300 300 299 299 299 297 295 295 295 295 295 296 298 300 302 306 308 307 308 302 292 297 306 312 315 315 317 323 325 329 334
310 307 305 302 301 300 300 299 299 298 299 297 296 296 295 294 293 294 295 299 301 302 304 306 308 312 310 307 311 314 319 325 324 322 328 342 342 338
308 306 304 303 301 300 299 298 298 297 296 295 295 295 295 296 294 294 296 298 300 304 310 313 317 318 316 313 315 319 326 332 335 338 341 344 347 349
Height
1481 1478 1475 1472 1469 1466 1462 1459 1454 1443 1435 1434 1431 1427 1423 1417 1411 1405 1400 1394 1389 1383 1378 1373 1368 1364 1360 1357 1353 1350 1348 1345 1343 1341 1340 1339 1338 1338
1477 1474 1471 1468 1464 1461 1457 1453 1449 1442 1431 1426 1424 1420 1415 1410 1405 1399 1393 1386 1380 1375 1369 1364 1359 1354 1350 1346 1342 1339 1336 1334 1331 1329 1328 1327 1326 1325
1472 1469 1466 1463 1459 1455 1451 1447 1443 1438 1427 1418 1417 1412 1407 1402 1396 1391 1385 1379 1372 1366 1361 1355 1350 1345 1340 1336 1332 1328 1325 1322 1319 1317 1316 1314 1313 1312
1468 1464 1461 1457 1453 1450 1445 1441 1436 1432 1424 1413 1408 1404 1400 1395 1389 1383 1378 1372 1365 1358 1352 1346 1340 1335 1330 1325 1321 1317 1313 1310 1307 1305 1303 1301 1300 1300
1463 1459 1455 1452 1448 1444 1439 1435 1430 1425 1420 1411 1402 1398 1393 1388 1382 1376 1370 1364 1358 1351 1344 1338 1331 1326 1320 1315 1310 1305 1301 1298 1294 1292 1290 1288 1287 1286
1458 1454 1450 1446 1442 1438 1434 1429 1425 1420 1414 1407 1399 1392 1387 1382 1377 1369 1361 1356 1349 1343 1336 1330 1324 1317 1311 1305 1299 1294 1289 1285 1282 1279 1277 1275 1274 1273
1452 1448 1444 1440 1436 1432 1428 1424 1419 1414 1408 1402 1395 1388 1381 1376 1371 1364 1356 1348 1341 1337 1329 1322 1316 1308 1301 1295 1289 1284 1279 1275 1271 1268 1265 1263 1261 1260
1447 1442 1438 1434 1430 1426 1422 1418 1414 1409 1403 1397 1390 1384 1377 1371 1365 1359 1351 1343 1333 1330 1323 1313 1309 1300 1293 1287 1280 1275 1270 1265 1260 1257 1253 1251 1249 1247
1441 1437 1433 1429 1424 1419 1415 1411 1407 1402 1398 1393 1385 1378 1372 1366 1360 1352 1346 1339 1330 1323 1316 1304 1300 1292 1285 1278 1272 1266 1260 1254 1249 1246 1242 1239 1237 1235
1436 1432 1427 1423 1418 1414 1409 1404 1399 1395 1390 1385 1378 1371 1365 1360 1355 1348 1340 1331 1323 1318 1313 1301 1291 1284 1276 1269 1262 1256 1250 1245 1240 1235 1231 1227 1224 1221
1431 1427 1422 1418 1413 1409 1404 1397 1391 1386 1382 1376 1370 1364 1358 1353 1348 1341 1334 1326 1316 1309 1305 1297 1286 1276 1266 1258 1252 1247 1242 1236 1231 1225 1220 1216 1212 1209
1426 1421 1417 1412 1407 1403 1398 1391 1385 1379 1373 1367 1362 1357 1351 1345 1341 1335 1329 1321 1313 1303 1296 1291 1282 1274 1258 1248 1245 1240 1234 1227 1222 1216 1210 1205 1201 1196
1420 1416 1411 1406 1401 1396 1391 1385 1379 1373 1367 1361 1355 1350 1344 1339 1334 1329 1323 1316 1308 1299 1292 1287 1277 1271 1264 1247 1236 1233 1227 1220 1213 1206 1200 1195 1190 1186
1415 1410 1405 1400 1395 1389 1384 1378 1373 1368 1362 1356 1350 1344 1338 1332 1327 1321 1315 1309 1302 1294 1287 1282 1274 1266 1258 1248 1236 1225 1220 1214 1207 1199 1192 1185 1179 1174
1409 1404 1399 1393 1388 1382 1377 1372 1367 1362 1357 1351 1345 1339 1333 1326 1320 1314 1307 1301 1295 1288 1282 1275 1269 1262 1255 1246 1234 1224 1215 1207 1201 1193 1185 1178 1170 1164
1404 1398 1393 1388 1382 1377 1372 1367 1363 1358 1352 1346 1340 1333 1327 1321 1314 1308 1301 1294 1287 1280 1276 1270 1264 1257 1249 1241 1232 1222 1214 1207 1197 1189 1180 1171 1163 1156
1399 1393 1388 1383 1378 1373 1368 1363 1358 1353 1347 1341 1335 1328 1322 1316 1310 1304 1297 1290 1283 1275 1268 1263 1258 1251 1244 1237 1227 1219 1211 1203 1194 1185 1176 1166 1158 1151
1394 1389 1384 1379 1374 1369 1363 1358 1353 1348 1342 1337 1330 1324 1318 1311 1305 1299 1293 1286 1279 1272 1265 1258 1251 1244 1237 1230 1225 1216 1208 1200 1191 1182 1174 1164 1154 1147
1390 1386 1381 1376 1371 1365 1360 1354 1349 1344 1338 1332 1326 1320 1314 1307 1301 1295 1289 1283 1276 1269 1263 1256 1250 1244 1237 1227 1219 1215 1207 1197 1188 1179 1171 1163 1153 1145
1387 1382 1377 1372 1367 1362 1357 1351 1345 1339 1334 1328 1322 1316 1310 1303 1297 1291 1285 1279 1273 1266 1260 1254 1249 1243 1237 1229 1218 1209 1205 1196 1187 1178 1170 1161 1153 1145
1383 1379 1374 1369 1364 1359 1353 1347 1341 1335 1330 1324 1318 1312 1306 1300 1294 1288 1282 1276 1271 1265 1258 1252 1246 1241 1234 1226 1218 1209 1202 1195 1188 1179 1171 1161 1153 1144
1380 1375 1371 1366 1361 1355 1349 1344 1338 1332 1326 1320 1314 1308 1303 1297 1291 1285 1279 1274 1268 1263 1256 1250 1244 1238 1232 1226 1218 1209 1200 1193 1186 1179 1172 1166 1158 1149
1377 1372 1367 1362 1357 1352 1346 1340 1334 1328 1323 1317 1311 1305 1299 1293 1288 1282 1277 1272 1266 1261 1255 1249 1243 1237 1232 1225 1218 1210 1202 1193 1186 1179 1173 1166 1159 1152